This is the latest recevied weather packets stored in our database for station/object WP4PW. If no packets are shown the sender has not sent any weather packets the latest 10 day(s).
| Time | Temp. | Humidity | Pressure | Rain* | Wind** | Luminosity | Snow |
|---|---|---|---|---|---|---|---|
| 1778101824 | 29.44° C | 83% | 1020.1 hPa | 0 mm | - | 200 W/m² | - |
| 1778101521 | 28.89° C | 84% | 1019.9 hPa | 0 mm | - | 212 W/m² | - |
| 1778101217 | 28.89° C | 83% | 1020.2 hPa | 0 mm | - | 227 W/m² | - |
| 1778100914 | 29.44° C | 83% | 1020 hPa | 0 mm | - | 67 W/m² | - |
| 1778100609 | 28.89° C | 83% | 1020 hPa | 0 mm | - | 258 W/m² | - |
| 1778100308 | 29.44° C | 80% | 1020 hPa | 0 mm | - | 129 W/m² | - |
| 1778100004 | 29.44° C | 82% | 1020 hPa | 0 mm | - | 271 W/m² | - |
| 1778099702 | 29.44° C | 82% | 1020.2 hPa | 0 mm | - | 313 W/m² | - |
| 1778099399 | 29.44° C | 82% | 1020 hPa | 0 mm | - | 297 W/m² | - |
| 1778099096 | 29.44° C | 83% | 1020 hPa | 0 mm | - | 316 W/m² | - |
| 1778098792 | 29.44° C | 81% | 1020.3 hPa | 0 mm | - | 367 W/m² | - |
| 1778098490 | 29.44° C | 82% | 1020.1 hPa | 0 mm | - | 378 W/m² | - |
| 1778098186 | 30° C | 80% | 1020.1 hPa | 0 mm | - | 400 W/m² | - |
| 1778097883 | 30° C | 80% | 1020.1 hPa | 0 mm | - | 419 W/m² | - |
| 1778097579 | 30° C | 80% | 1020.2 hPa | 0 mm | - | 431 W/m² | - |
| 1778097276 | 30° C | 79% | 1020.2 hPa | 0 mm | - | 446 W/m² | - |
| 1778096973 | 30° C | 80% | 1020.2 hPa | 0 mm | - | 217 W/m² | - |
| 1778096670 | 30° C | 79% | 1020.3 hPa | 0 mm | - | 474 W/m² | - |
| 1778096367 | 31.11° C | 77% | 1020.3 hPa | 0 mm | - | 488 W/m² | - |
| 1778096064 | 30.56° C | 80% | 1020.3 hPa | 0 mm | - | 505 W/m² | - |
| 1778095760 | 29.44° C | 80% | 1020.5 hPa | 0 mm | - | 523 W/m² | - |
| 1778095457 | 29.44° C | 79% | 1020.6 hPa | 0 mm | - | 530 W/m² | - |
| 1778095154 | 30° C | 78% | 1020.5 hPa | 0 mm | - | 552 W/m² | - |
| 1778094851 | 30.56° C | 79% | 1020.8 hPa | 0 mm | - | 563 W/m² | - |
| 1778094548 | 30° C | 79% | 1020.7 hPa | 0 mm | - | 585 W/m² | - |
* Rain latest hour (hover to see other rain measurements)
** Current wind speed in m/s (hover to see current wind gust speed)